FLOCK 3P-66 (42027 NORAD) Tracking and Keplerian Element Data

This shows tracking and keplerian element data for the satellite.

Feedback or suggestion? Click here.




ElementValue
Catalog42027
NameFLOCK 3P-66
Epoch Orbit5539
Epoch Day45.61288744
Epoch Year2018
RAAN111.2052
Inclination97.4663
Eccentricity0.0009941
Argument of Perigee82.7999
Mean Anonmoly277.4368
Mean Motion15.23919904
Decay Rate1.38E-05
L11 42027U 17008CH 18045.61288744 .00001380 00000-0 60027-4 0 9990
L22 42027 97.4663 111.2052 0009941 82.7999 277.4368 15.23919904 55393

Live tracking and technical data element details for FLOCK 3P-66 (NORAD 42027). FLOCK 3P-66 can be tracked NOW for your location showing map with azimuth and elevation plus other details from your city location.

Track the satellite on the map from your city or location and see movement details for azimuth, elevation, latitude, longitude, range, height, and movement on the map or in text.







IsCatalogInMostPopularTable: catalog: 42027, numindb: 124
Update: records affected: 1



GetName: 42027 FLOCK 3P-66

Hit Count: updated at: Mon, 19 Nov 2018 11:04:43 GMT